Regional Weather Roundup
Issued by NWS

Home | Current Version | Previous Version | Graphics & Text | Print | Product List | Glossary On
Versions: 1 2 3 4 5 6 7 8 9 10 11 12 13 14 15 16 17 18 19 20 21 22 23 24 25 26 27 28 29 30 31 32 33 34 35 36 37 38 39 40 41 42 43 44 45 46 47 48 49 50
000
ASUS45 KABQ 121801
RWRNM
NEW MEXICO REGIONAL WEATHER ROUNDUP
NATIONAL WEATHER SERVICE ALBUQUERQUE NM
1100 AM MST TUE DEC 12 2017

NOTE: "FAIR" MEANS FEW OR NO CLOUDS BELOW 12,000 FEET AGL WITH NO
       SIGNIFICANT WEATHER OR OBSTRUCTIONS TO VISION.

      THIS PRODUCT IS RELEASED AS TWO VERSIONS.  ONE VERSION NEAR
      THE TOP OF THE HOUR CONTAINING PRELIMINARY DATA FROM ALBUQUERQUE
      AND OTHER STATIONS.  A FINAL VERSION WITH ADDITIONAL DATA IS
      ISSUED ABOUT 10 MINUTES AFTER THE HOUR.

NMZ501-503-504-510>518-121900-
NORTHWEST PLATEAU/NORTHCENTRAL MOUNTAINS

CITY           SKY/WX    TMP DP  RH WIND       PRES   REMARKS
FARMINGTON     FAIR      35   6  29 CALM      30.50F
6HR MIN TEMP:  10; 6HR MAX TEMP:  35;

LOS ALAMOS     FAIR      41   5  22 E3        30.51F
SANTA FE       FAIR      44   5  20 N14       30.48F
6HR MIN TEMP:  22; 6HR MAX TEMP:  45;

TAOS           FAIR      44   4  19 S3        30.52F
ANGEL FIRE     FAIR      45   5  19 S3        30.51F

$$
NMZ402-403-502-505>509-121900-
WESTCENTRAL MOUNTAINS/SOUTHWEST MOUNTAINS

CITY           SKY/WX    TMP DP  RH WIND       PRES   REMARKS
GALLUP         FAIR      40  -1  18 NW3       30.50F
6HR MIN TEMP:   4; 6HR MAX TEMP:  40;

GRANTS         FAIR      36  -4  18 N3        30.52F
SILVER CITY      N/A     52   7  16 SE18      30.49S

$$
NMZ407-409-411-412-121900-
SOUTHERN DESERTS

CITY           SKY/WX    TMP DP  RH WIND       PRES   REMARKS
DEMING         FAIR      53   9  17 E13       30.49F
6HR MIN TEMP:  32; 6HR MAX TEMP:  53;

LAS CRUCES     FAIR      51   7  16 SE7       30.51S
HOLLOMAN AFB   FAIR      53  10  18 W5        30.51F
ALAMOGORDO     FAIR      52   9  17 SW3       30.50F
T OR C         FAIR      50   5  16 NE7       30.50S
6HR MIN TEMP:  28; 6HR MAX TEMP:  50;


$$
NMZ519>523-121900-
CENTRAL VALLEYS/CENTRAL HIGHLANDS

CITY           SKY/WX    TMP DP  RH WIND       PRES   REMARKS
ALBUQUERQUE    FAIR      43   6  21 CALM      30.51F
6HR MIN TEMP:  27; 6HR MAX TEMP:  43;

DOUBLE EAGLE   SUNNY     45   9  23 NE5       30.52F
MORIARTY ARPT  FAIR      46  10  24 S3        30.50F
6HR MIN TEMP:  10; 6HR MAX TEMP:  46;

CLINES CORNERS FAIR      46   8  21 SW8       30.48F
6HR MIN TEMP:  26; 6HR MAX TEMP:  47;

BELEN          FAIR      45   3  17 CALM      30.51F
6HR MIN TEMP:  18; 6HR MAX TEMP:  45;

SOCORRO        FAIR      44   0  16 N7        30.51F
6HR MIN TEMP:  27; 6HR MAX TEMP:  44;


$$
NMZ524>526-539-540-121900-
SOUTHCENTRAL MOUNTAINS

CITY           SKY/WX    TMP DP  RH WIND       PRES   REMARKS
RUIDOSO        FAIR      46   7  19 SW5       30.51F

$$
NMZ527>531-121900-
NORTHEAST HIGHLANDS/NORTHEAST PLAINS

CITY           SKY/WX    TMP DP  RH WIND       PRES   REMARKS
LAS VEGAS      FAIR      48   8  19 S13       30.44F
6HR MIN TEMP:  22; 6HR MAX TEMP:  48;

RATON          FAIR      46   6  19 CALM      30.43F
6HR MIN TEMP:  15; 6HR MAX TEMP:  47;

CLAYTON        FAIR      57   8  14 W16       30.37F
6HR MIN TEMP:  25; 6HR MAX TEMP:  57;


$$
NMZ532>537-121900-
EASTCENTRAL PLAINS

CITY           SKY/WX    TMP DP  RH WIND       PRES   REMARKS
SANTA ROSA     FAIR      52  10  18 SW14      30.46F
TUCUMCARI      FAIR      55   9  16 SW9       30.42F
6HR MIN TEMP:  21; 6HR MAX TEMP:  55;

CANNON AFB     FAIR      51  10  19 W10       30.47F
6HR MIN TEMP:  25; 6HR MAX TEMP:  51;

CLOVIS AIRPORT FAIR      53  10  18 W12       30.47F

$$
NMZ028-029-538-121900-
SOUTHEAST PLAINS

CITY           SKY/WX    TMP DP  RH WIND       PRES   REMARKS
ROSWELL        FAIR      51  12  21 SE5       30.49F
6HR MIN TEMP:  26; 6HR MAX TEMP:  51;

ARTESIA        FAIR      50  12  22 SE3       30.51F
CARLSBAD       FAIR      51  15  23 VRB6      30.51F
6HR MIN TEMP:  26; 6HR MAX TEMP:  51;

HOBBS          SUNNY     50  14  23 VRB5      30.50F


$$




USA.gov is the U.S. government's official web portal to all federal, state and local government web resources and services.